Date String (YYYY-MM-DD hh:mm:ss) UTC,Instrument flags,Ambient pressure (hPa),Sample flow (lpm),Bypass flow (lpm),Sample temperature (°C),Ambient temperature (°C),ASC tube jacket temperature (°C),LED temperature (°C),Box temperature (°C),Sample RH (%),Span deviation,Mass concentration (μg/m³),Mass concentration (μg/m³),Mass concentration (μg/m³)
DateTimeUTC,F1_M11,P_M11,Q1_M11,Q2_M11,T1_M11,T2_M11,T3_M11,T4_M11,T5_M11,U1_M11,ZSPAN_M11,X0_M11,X2_M11,X1_M11
2022-11-17 09:00:00,,0829.5,4.99,0.00,21.9,20.2,00.0,31.0,23.6,10.1,0000.0,0009.74,0004.85,0004.14
2022-11-17 09:01:00,,0829.5,5.01,0.00,21.9,20.2,00.0,31.0,23.7,09.7,0000.0,0009.34,0004.76,0004.07
2022-11-17 09:02:00,,0829.5,5.01,0.00,21.9,20.3,00.0,31.0,23.7,09.5,0000.0,0009.11,0004.65,0003.99
2022-11-17 09:03:00,,0829.5,5.00,0.00,21.9,20.4,00.0,30.9,23.7,09.5,0000.0,0009.08,0004.60,0003.96
2022-11-17 09:04:00,,0829.5,4.99,0.00,21.9,20.4,00.0,30.9,23.7,09.6,0000.0,0009.26,0004.71,0004.04
2022-11-17 09:05:00,,0829.5,4.99,0.00,21.9,20.4,00.0,30.9,23.7,09.6,0000.0,0009.32,0004.70,0004.04
2022-11-17 09:06:00,,0829.5,5.00,0.00,21.9,20.4,00.0,30.9,23.7,09.4,0000.0,0009.13,0004.60,0003.97
2022-11-17 09:07:00,,0829.5,5.00,0.00,21.9,20.6,00.0,30.9,23.7,09.4,0000.0,0008.99,0004.49,0003.89
2022-11-17 09:08:00,,0829.5,5.02,0.00,22.0,21.4,00.0,30.8,23.9,09.3,0000.0,0008.88,0004.42,0003.81
2022-11-17 09:09:00,,0829.5,5.00,0.00,22.1,22.2,00.0,30.8,24.1,09.2,0000.0,0009.09,0004.30,0003.73
2022-11-17 09:10:00,,0829.5,5.00,0.00,22.2,22.1,00.0,30.9,24.2,08.8,0000.0,0008.92,0004.15,0003.60
2022-11-17 09:11:00,,0829.5,4.99,0.00,22.2,21.8,00.0,30.9,24.1,08.9,0000.0,0008.94,0004.01,0003.49
2022-11-17 09:12:00,,0829.5,5.00,0.00,22.2,21.6,00.0,31.0,24.1,08.7,0000.0,0009.07,0003.92,0003.41
2022-11-17 09:13:00,,0829.5,5.00,0.00,22.2,21.3,00.0,31.0,24.0,08.6,0000.0,0008.94,0003.81,0003.31
2022-11-17 09:14:00,,0829.5,5.00,0.00,22.1,21.1,00.0,31.0,24.0,08.6,0000.0,0008.67,0003.69,0003.22
2022-11-17 09:15:00,,0829.5,5.00,0.00,22.1,20.9,00.0,31.0,24.0,08.6,0000.0,0008.39,0003.55,0003.11
2022-11-17 09:16:00,,0829.5,5.01,0.00,22.1,20.9,00.0,31.0,24.0,09.2,0000.0,0008.26,0003.50,0003.05
2022-11-17 09:17:00,,0829.5,5.01,0.00,22.1,20.9,00.0,31.0,23.9,09.2,0000.0,0009.04,0003.53,0003.05
2022-11-17 09:18:00,,0829.5,4.99,0.00,22.1,20.8,00.0,31.0,23.9,09.2,0000.0,0009.01,0003.53,0003.05
2022-11-17 09:19:00,,0829.4,5.00,0.00,22.1,20.8,00.0,31.0,23.9,09.2,0000.0,0009.25,0003.51,0003.03
2022-11-17 09:20:00,,0829.4,5.01,0.00,22.1,20.9,00.0,31.0,23.9,09.1,0000.0,0008.65,0003.48,0003.01
2022-11-17 09:21:00,,0829.5,5.00,0.00,22.1,20.9,00.0,31.0,23.9,09.0,0000.0,0008.64,0003.48,0003.03
2022-11-17 09:22:00,,0829.5,4.99,0.00,22.1,20.9,00.0,31.0,23.9,08.8,0000.0,0008.52,0003.47,0003.01
2022-11-17 09:23:00,,0829.4,4.99,0.00,22.1,20.9,00.0,31.0,23.9,08.9,0000.0,0008.32,0003.45,0003.01
2022-11-17 09:24:00,,0829.3,5.00,0.00,22.1,20.9,00.0,31.0,23.9,08.9,0000.0,0008.28,0003.46,0003.06
2022-11-17 09:25:00,,0829.4,5.00,0.00,22.1,20.8,00.0,31.0,23.9,08.7,0000.0,0008.26,0003.47,0003.09
2022-11-17 09:26:00,,0829.2,5.00,0.00,22.1,20.8,00.0,31.0,23.9,08.6,0000.0,0008.22,0003.48,0003.09
2022-11-17 09:27:00,,0829.2,5.00,0.00,22.1,20.8,00.0,31.0,23.9,08.5,0000.0,0008.08,0003.39,0002.95
2022-11-17 09:28:00,,0829.4,5.00,0.00,22.1,20.8,00.0,31.0,23.9,08.6,0000.0,0007.09,0003.26,0002.77
2022-11-17 09:29:00,,0829.3,5.00,0.00,22.1,20.8,00.0,31.0,23.9,08.7,0000.0,0007.17,0003.16,0002.63
2022-11-17 09:30:00,,0829.2,5.00,0.00,22.1,20.8,00.0,31.0,23.9,08.8,0000.0,0006.35,0003.08,0002.53
2022-11-17 09:31:00,,0829.3,5.00,0.00,22.1,20.8,00.0,31.0,23.8,08.7,0000.0,0006.13,0002.97,0002.43
2022-11-17 09:32:00,,0829.3,5.00,0.00,22.1,20.8,00.0,31.0,23.9,08.6,0000.0,0005.61,0002.88,0002.34
2022-11-17 09:33:00,,0829.3,5.00,0.00,22.1,20.7,00.0,30.9,23.9,08.6,0000.0,0005.09,0002.79,0002.27
2022-11-17 09:34:00,,0829.4,5.00,0.00,22.1,20.7,00.0,30.9,23.9,08.8,0000.0,0004.68,0002.71,0002.25
2022-11-17 09:35:00,,0829.4,5.00,0.00,22.1,20.7,00.0,30.9,23.9,08.8,0000.0,0004.78,0002.72,0002.23
2022-11-17 09:36:00,,0829.5,5.00,0.00,22.1,20.9,00.0,30.9,23.9,09.2,0000.0,0004.93,0002.80,0002.27
2022-11-17 09:37:00,,0829.5,5.00,0.00,22.1,21.7,00.0,30.9,24.1,09.4,0000.0,0005.22,0002.98,0002.39
2022-11-17 09:38:00,,0829.5,4.98,0.00,22.2,22.4,00.0,30.9,24.3,09.2,0000.0,0005.52,0003.13,0002.50
2022-11-17 09:39:00,,0829.4,5.00,0.00,22.3,22.2,00.0,31.0,24.3,08.9,0000.0,0005.75,0003.21,0002.58
2022-11-17 09:40:00,,0829.4,5.00,0.00,22.3,21.9,00.0,31.0,24.3,08.8,0000.0,0006.13,0003.25,0002.62
2022-11-17 09:41:00,,0829.4,5.00,0.00,22.3,21.6,00.0,31.1,24.2,08.7,0000.0,0006.09,0003.25,0002.63
2022-11-17 09:42:00,,0829.4,5.00,0.00,22.3,21.5,00.0,31.1,24.2,08.5,0000.0,0006.10,0003.22,0002.63
2022-11-17 09:43:00,,0829.4,4.99,0.00,22.3,21.4,00.0,31.1,24.2,08.6,0000.0,0006.37,0003.23,0002.65
2022-11-17 09:44:00,,0829.4,5.00,0.00,22.3,21.3,00.0,31.1,24.2,08.5,0000.0,0006.38,0003.25,0002.69
2022-11-17 09:45:00,,0829.4,5.01,0.00,22.3,21.2,00.0,31.1,24.1,08.2,0000.0,0006.16,0003.21,0002.61
2022-11-17 09:46:00,,0829.5,5.00,0.00,22.3,21.1,00.0,31.1,24.1,08.4,0000.0,0006.80,0003.18,0002.56
2022-11-17 09:47:00,,0829.5,5.00,0.00,22.3,21.1,00.0,31.1,24.1,08.9,0000.0,0007.12,0003.16,0002.54
2022-11-17 09:48:00,,0829.5,5.00,0.00,22.3,21.1,00.0,31.1,24.1,09.5,0000.0,0007.28,0003.20,0002.58
2022-11-17 09:49:00,,0829.5,5.00,0.00,22.3,21.0,00.0,31.1,24.1,09.5,0000.0,0007.90,0003.28,0002.73
2022-11-17 09:50:00,,0829.5,5.00,0.00,22.3,21.0,00.0,31.1,24.1,09.1,0000.0,0008.88,0003.33,0002.79
2022-11-17 09:51:00,,0829.5,5.00,0.00,22.3,21.0,00.0,31.1,24.0,09.3,0000.0,0009.37,0003.41,0002.88
2022-11-17 09:52:00,,0829.5,4.99,0.00,22.2,21.0,00.0,31.1,24.0,09.7,0000.0,0010.89,0003.59,0003.10
2022-11-17 09:53:00,,0829.5,4.99,0.00,22.2,21.0,00.0,31.1,24.0,09.4,0000.0,0011.25,0003.77,0003.23
2022-11-17 09:54:00,,0829.5,5.01,0.00,22.2,20.9,00.0,31.1,24.0,09.3,0000.0,0011.30,0003.89,0003.32
2022-11-17 09:55:00,,0829.5,5.01,0.00,22.2,20.9,00.0,31.1,24.0,09.7,0000.0,0012.43,0004.06,0003.44
2022-11-17 09:56:00,,0829.5,4.99,0.00,22.2,20.9,00.0,31.1,24.0,09.8,0000.0,0013.15,0004.29,0003.61
2022-11-17 09:57:00,,0829.4,4.99,0.00,22.2,20.8,00.0,31.1,24.0,09.9,0000.0,0013.40,0004.55,0003.78
2022-11-17 09:58:00,,0829.5,5.00,0.00,22.2,20.8,00.0,31.1,24.0,09.9,0000.0,0013.64,0004.76,0003.90
2022-11-17 09:59:00,,0829.5,5.01,0.00,22.2,20.8,00.0,31.1,24.0,09.9,0000.0,0014.30,0004.85,0003.95
